BLOCK DM-SL R/B, 27953

Orbit data source: Space-Track

BLOCK DM-SL R/B, 27953 is space debris in HEO originally from a launch on Wed, 01 Oct 2003 UTC launched from the Sea Launch (SEAL). Debris objects in space refer to the collection of defunct objects orbiting the Earth. Examples of debris include non-operational satellites, rocket bodies, and fragments generated from explosions, collisions, or faulty payload assembly.

Loading next visibility...
Identifier
27953, 2003-044B
Orbit
HEO
Country
Flag of USUS / SEAL
Related business
Manufacturer
RKKE
Mission
Spacecraft
Bus & Motor
BLOK DM2, 11D58M
Mass
~3,210 kg wet, 3,210 kg dry
Launch date (UTC)
2003-10-01 (23 years ago)
Launch vehicle
Unknown
Launch site
Sea Launch (SEAL)
Object type
Payload
Rocket body
Debris
Shape & HBR
Cyl, 3.1 m
Radar Cross Section
23.684 m², Large (>1 m²)

Expand to show TLE details & history
Last TLE update: 15 hours ago

TLE from 15 hours ago
0 BLOCK DM-SL R/B
1 27953U 03044B   26106.74987333 -.00000072  00000-0  00000-0 0  9996
2 27953   0.9531 328.0896 6596778 290.9577  25.5527  2.14422317176511
Epoch: 2026-04-16T17:59Z
TLE epoch observation values (Epoch: 2026-04-16T17:59:49.055Z)
Latitude
0.53852°
Longitude
-114.85065°
Altitude
10,062.71 km
Speed
5.727 km/s
True Right ascension
23h 59m 59s
True Declination
0° 32' 14"
Sunlit
Object was in daylight at epoch
Visualization orbit readout
Latitude
Unknown
Longitude
Unknown
Altitude
Unknown
Speed
Unknown
Apparent Right ascension
Unknown
Apparent Declination
Unknown
Sunlit
N/A
Visualization observer readout
Local Sidereal Time
15:58:06
Azimuth
Unknown
Elevation
Unknown
Doppler factor
Unknown
Orbital elements
Apogee altitude
35,789.801 km
Perigee altitude
2,268.533 km
Semi-major axis
25,407.304 km
Eccentricity
0.65968
Inclination
0.9531°
RAAN
328.0896°
Arg. of periapsis
290.9577°
True anomaly
100.80156°
Mean anomaly
25.5527°
Eccentric anomaly
57.39172°
Mean motion
0.53593 °/min
Orbital period
671.73 mins
BSTAR
0
Loading maneuver chart data...
Computing Atmospheric mass density...
Loading historical data...
Loading historical data...
Loading historical data...
Loading historical data...
Loading historical data...
Loading historical data...
Loading historical data...
Other satellites on launch #44 in the year 2003 (2003-10-01 UTC)

Documentation

Showing up to 5 results
|